Terug naar catalogus

GAOFEN 11 2

ActiefMilitairSSO
NORAD 46396·PAYLOAD·🇨🇳 China

Gelanceerd Sep 7, 2020 vanaf Taiyuan Satellite Launch Center

Loading…

Volgende Passages (komende 24 uur)

TLE

VersSource: Space-Track

Epoch: Sep 14, 2026, 23:34 UTC

1 46396U 20064A   26257.98227582  .00004352  00000-0  18316-3 0  9991
2 46396  97.5256  24.1634 0018641 343.4458  16.6167 15.23770839335200

Volg GAOFEN 11 2 in realtime met AllMySat

Download on the App Store